Time,TemperatureF,DewpointF,PressureIn,WindDirection,WindDirectionDegrees,WindSpeedMPH,WindSpeedGustMPH,Humidity,HourlyPrecipIn,Conditions,Clouds,dailyrainin,SoftwareType,DateUTC
2013-06-18 00:01:00,69.5,52.8,29.92,WNW,302,8.0,16.0,55,0.00,,,0.00,WUHU216DAVISVP2,2013-06-18 07:01:00,
2013-06-18 00:06:00,69.3,53.1,29.92,NW,306,8.0,14.0,56,0.00,,,0.00,WUHU216DAVISVP2,2013-06-18 07:06:00,
2013-06-18 00:11:00,69.1,53.4,29.92,WNW,286,3.0,14.0,57,0.00,,,0.00,WUHU216DAVISVP2,2013-06-18 07:11:00,
2013-06-18 00:16:00,69.0,53.3,29.92,WNW,289,10.0,14.0,57,0.00,,,0.00,WUHU216DAVISVP2,2013-06-18 07:16:00,
2013-06-18 00:21:00,68.8,53.6,29.92,WNW,301,7.0,14.0,58,0.00,,,0.00,WUHU216DAVISVP2,2013-06-18 07:21:00,
2013-06-18 00:26:00,68.6,53.4,29.92,NW,306,6.0,14.0,58,0.00,,,0.00,WUHU216DAVISVP2,2013-06-18 07:26:00,
2013-06-18 00:31:00,68.4,53.2,29.92,NW,315,8.0,14.0,58,0.00,,,0.00,WUHU216DAVISVP2,2013-06-18 07:31:00,
2013-06-18 00:36:00,68.3,53.6,29.92,NW,315,10.0,15.0,59,0.00,,,0.00,WUHU216DAVISVP2,2013-06-18 07:36:00,
2013-06-18 00:41:00,68.2,53.5,29.92,NW,311,7.0,15.0,59,0.00,,,0.00,WUHU216DAVISVP2,2013-06-18 07:41:00,
2013-06-18 00:46:00,68.1,53.4,29.92,NW,304,8.0,15.0,59,0.00,,,0.00,WUHU216DAVISVP2,2013-06-18 07:46:00,
2013-06-18 00:51:00,68.1,53.4,29.92,NW,304,5.0,15.0,59,0.00,,,0.00,WUHU216DAVISVP2,2013-06-18 07:51:00,
2013-06-18 00:56:00,68.0,53.1,29.92,WNW,293,10.0,15.0,59,0.00,,,0.00,WUHU216DAVISVP2,2013-06-18 07:56:00,
2013-06-18 01:01:00,67.9,53.0,29.92,NW,319,7.0,15.0,59,0.00,,,0.00,WUHU216DAVISVP2,2013-06-18 08:01:00,
2013-06-18 01:06:00,67.8,53.4,29.92,WNW,294,5.0,15.0,60,0.00,,,0.00,WUHU216DAVISVP2,2013-06-18 08:06:00,
2013-06-18 01:11:00,67.7,53.3,29.92,NW,307,8.0,14.0,60,0.00,,,0.00,WUHU216DAVISVP2,2013-06-18 08:11:00,
2013-06-18 01:16:00,67.6,53.2,29.92,WNW,296,8.0,14.0,60,0.00,,,0.00,WUHU216DAVISVP2,2013-06-18 08:16:00,
2013-06-18 01:21:00,67.4,53.5,29.92,NW,309,7.0,12.0,61,0.00,,,0.00,WUHU216DAVISVP2,2013-06-18 08:21:00,
2013-06-18 01:26:00,67.3,53.4,29.92,NW,317,9.0,14.0,61,0.00,,,0.00,WUHU216DAVISVP2,2013-06-18 08:26:00,
2013-06-18 01:31:00,67.2,53.3,29.92,NNW,342,5.0,14.0,61,0.00,,,0.00,WUHU216DAVISVP2,2013-06-18 08:31:00,
2013-06-18 01:36:00,67.1,53.2,29.92,NNW,331,8.0,13.0,61,0.00,,,0.00,WUHU216DAVISVP2,2013-06-18 08:36:00,
2013-06-18 01:41:00,66.9,53.0,29.92,NNW,336,7.0,17.0,61,0.00,,,0.00,WUHU216DAVISVP2,2013-06-18 08:41:00,
2013-06-18 01:46:00,66.7,53.3,29.92,WNW,299,7.0,17.0,62,0.00,,,0.00,WUHU216DAVISVP2,2013-06-18 08:46:00,
2013-06-18 01:51:00,66.5,53.1,29.92,NW,310,7.0,13.0,62,0.00,,,0.00,WUHU216DAVISVP2,2013-06-18 08:51:00,
2013-06-18 01:56:00,66.3,53.3,29.92,NNW,327,7.0,14.0,63,0.00,,,0.00,WUHU216DAVISVP2,2013-06-18 08:56:00,
2013-06-18 02:01:00,66.1,53.1,29.92,NW,311,1.0,14.0,63,0.00,,,0.00,WUHU216DAVISVP2,2013-06-18 09:01:00,
2013-06-18 02:06:00,65.8,53.5,29.92,NW,311,8.0,11.0,64,0.00,,,0.00,WUHU216DAVISVP2,2013-06-18 09:06:00,
2013-06-18 02:11:00,65.6,53.3,29.92,NW,325,13.0,13.0,64,0.00,,,0.00,WUHU216DAVISVP2,2013-06-18 09:11:00,
2013-06-18 02:16:00,65.4,53.1,29.92,NW,304,8.0,13.0,64,0.00,,,0.00,WUHU216DAVISVP2,2013-06-18 09:16:00,
2013-06-18 02:21:00,65.3,53.4,29.92,NW,304,5.0,13.0,65,0.00,,,0.00,WUHU216DAVISVP2,2013-06-18 09:21:00,
2013-06-18 02:26:00,65.1,53.2,29.92,NW,315,7.0,13.0,65,0.00,,,0.00,WUHU216DAVISVP2,2013-06-18 09:26:00,
2013-06-18 02:31:00,64.9,53.4,29.92,WNW,298,6.0,11.0,66,0.00,,,0.00,WUHU216DAVISVP2,2013-06-18 09:31:00,
2013-06-18 02:36:00,64.7,53.2,29.92,WNW,302,9.0,12.0,66,0.00,,,0.00,WUHU216DAVISVP2,2013-06-18 09:36:00,
2013-06-18 02:41:00,64.6,53.1,29.92,NW,304,4.0,12.0,66,0.00,,,0.00,WUHU216DAVISVP2,2013-06-18 09:41:00,
2013-06-18 02:46:00,64.4,53.0,29.92,WNW,286,3.0,14.0,66,0.00,,,0.00,WUHU216DAVISVP2,2013-06-18 09:46:00,
2013-06-18 02:51:00,64.3,53.3,29.92,WNW,302,9.0,14.0,67,0.00,,,0.00,WUHU216DAVISVP2,2013-06-18 09:51:00,
2013-06-18 02:56:00,64.2,53.2,29.91,NW,317,6.0,12.0,67,0.00,,,0.00,WUHU216DAVISVP2,2013-06-18 09:56:00,
2013-06-18 03:01:00,64.0,52.8,29.92,NW,320,5.0,12.0,67,0.00,,,0.00,WUHU216DAVISVP2,2013-06-18 10:01:00,
2013-06-18 03:06:00,63.9,52.3,29.91,NNW,331,7.0,16.0,66,0.00,,,0.00,WUHU216DAVISVP2,2013-06-18 10:06:00,
2013-06-18 03:11:00,63.8,52.2,29.91,NNW,342,2.0,16.0,66,0.00,,,0.00,WUHU216DAVISVP2,2013-06-18 10:11:00,
2013-06-18 03:16:00,63.7,52.1,29.92,WNW,283,13.0,14.0,66,0.00,,,0.00,WUHU216DAVISVP2,2013-06-18 10:16:00,
2013-06-18 03:21:00,63.6,52.0,29.92,NW,321,9.0,14.0,66,0.00,,,0.00,WUHU216DAVISVP2,2013-06-18 10:21:00,
2013-06-18 03:26:00,63.5,52.1,29.92,WNW,296,7.0,12.0,66,0.00,,,0.00,WUHU216DAVISVP2,2013-06-18 10:26:00,
2013-06-18 03:31:00,63.4,51.6,29.92,WNW,290,7.0,12.0,65,0.00,,,0.00,WUHU216DAVISVP2,2013-06-18 10:31:00,
2013-06-18 03:36:00,63.2,51.4,29.92,NW,310,6.0,12.0,65,0.00,,,0.00,WUHU216DAVISVP2,2013-06-18 10:36:00,
2013-06-18 03:41:00,63.1,51.3,29.92,NW,307,8.0,11.0,65,0.00,,,0.00,WUHU216DAVISVP2,2013-06-18 10:41:00,
2013-06-18 03:46:00,63.1,51.3,29.92,NW,307,7.0,15.0,65,0.00,,,0.00,WUHU216DAVISVP2,2013-06-18 10:46:00,
2013-06-18 03:51:00,62.9,51.5,29.92,NW,313,2.0,15.0,66,0.00,,,0.00,WUHU216DAVISVP2,2013-06-18 10:51:00,
2013-06-18 03:56:00,62.7,51.3,29.92,WNW,302,6.0,11.0,66,0.00,,,0.00,WUHU216DAVISVP2,2013-06-18 10:56:00,
2013-06-18 04:01:00,62.6,51.2,29.92,NW,310,6.0,12.0,66,0.00,,,0.00,WUHU216DAVISVP2,2013-06-18 11:01:00,
2013-06-18 04:06:00,62.5,51.5,29.92,NW,311,5.0,12.0,67,0.00,,,0.00,WUHU216DAVISVP2,2013-06-18 11:06:00,
2013-06-18 04:11:00,62.3,51.4,29.92,WNW,290,0.0,9.0,67,0.00,,,0.00,WUHU216DAVISVP2,2013-06-18 11:11:00,
2013-06-18 04:16:00,62.1,51.6,29.92,WNW,300,6.0,9.0,68,0.00,,,0.00,WUHU216DAVISVP2,2013-06-18 11:16:00,
2013-06-18 04:21:00,62.0,51.5,29.92,WNW,298,6.0,8.0,68,0.00,,,0.00,WUHU216DAVISVP2,2013-06-18 11:21:00,
2013-06-18 04:26:00,61.8,52.4,29.92,NNW,327,5.0,8.0,71,0.00,,,0.00,WUHU216DAVISVP2,2013-06-18 11:26:00,
2013-06-18 04:31:00,61.6,52.2,29.92,NW,313,1.0,7.0,71,0.00,,,0.00,WUHU216DAVISVP2,2013-06-18 11:31:00,
2013-06-18 04:36:00,61.5,52.5,29.92,NW,320,1.0,8.0,72,0.00,,,0.00,WUHU216DAVISVP2,2013-06-18 11:36:00,
2013-06-18 04:41:00,61.3,51.4,29.93,NW,313,6.0,10.0,70,0.00,,,0.00,WUHU216DAVISVP2,2013-06-18 11:41:00,
2013-06-18 04:46:00,61.1,51.6,29.93,NW,317,5.0,10.0,71,0.00,,,0.00,WUHU216DAVISVP2,2013-06-18 11:46:00,
2013-06-18 04:51:00,60.9,51.6,29.93,NW,317,0.0,8.0,71,0.00,,,0.00,WUHU216DAVISVP2,2013-06-18 11:51:00,
2013-06-18 04:56:00,60.7,51.4,29.93,NW,317,3.0,7.0,71,0.00,,,0.00,WUHU216DAVISVP2,2013-06-18 11:56:00,
2013-06-18 05:01:00,60.6,51.7,29.93,NW,321,1.0,7.0,72,0.00,,,0.00,WUHU216DAVISVP2,2013-06-18 12:01:00,
2013-06-18 05:06:00,60.4,51.5,29.93,NW,322,3.0,6.0,72,0.00,,,0.00,WUHU216DAVISVP2,2013-06-18 12:06:00,
2013-06-18 05:11:00,60.2,51.6,29.93,NW,321,2.0,5.0,73,0.00,,,0.00,WUHU216DAVISVP2,2013-06-18 12:11:00,
2013-06-18 05:16:00,60.1,51.5,29.93,NNW,336,3.0,7.0,73,0.00,,,0.00,WUHU216DAVISVP2,2013-06-18 12:16:00,
2013-06-18 05:21:00,60.0,51.3,29.93,NNW,336,0.0,7.0,73,0.00,,,0.00,WUHU216DAVISVP2,2013-06-18 12:21:00,
2013-06-18 05:26:00,59.7,51.4,29.93,NNW,336,1.0,5.0,74,0.00,,,0.00,WUHU216DAVISVP2,2013-06-18 12:26:00,
2013-06-18 05:31:00,59.6,51.4,29.93,NNW,336,0.0,4.0,74,0.00,,,0.00,WUHU216DAVISVP2,2013-06-18 12:31:00,
2013-06-18 05:36:00,59.3,51.1,29.93,NNW,336,3.0,4.0,74,0.00,,,0.00,WUHU216DAVISVP2,2013-06-18 12:36:00,
2013-06-18 05:41:00,59.1,51.3,29.93,NNW,336,3.0,3.0,75,0.00,,,0.00,WUHU216DAVISVP2,2013-06-18 12:41:00,
2013-06-18 05:46:00,59.0,51.2,29.93,NNW,336,2.0,5.0,75,0.00,,,0.00,WUHU216DAVISVP2,2013-06-18 12:46:00,
2013-06-18 05:51:00,58.9,51.1,29.93,NNW,336,5.0,5.0,75,0.00,,,0.00,WUHU216DAVISVP2,2013-06-18 12:51:00,
2013-06-18 05:56:00,58.8,51.0,29.93,NNW,335,4.0,6.0,75,0.00,,,0.00,WUHU216DAVISVP2,2013-06-18 12:56:00,
2013-06-18 06:01:00,58.7,51.2,29.93,NNW,335,0.0,6.0,76,0.00,,,0.00,WUHU216DAVISVP2,2013-06-18 13:01:00,
2013-06-18 06:06:00,58.7,51.2,29.93,NNW,335,2.0,5.0,76,0.00,,,0.00,WUHU216DAVISVP2,2013-06-18 13:06:00,
2013-06-18 06:11:00,58.7,51.2,29.93,NNW,335,0.0,4.0,76,0.00,,,0.00,WUHU216DAVISVP2,2013-06-18 13:11:00,
2013-06-18 06:16:00,58.7,51.2,29.94,NNW,335,0.0,4.0,76,0.00,,,0.00,WUHU216DAVISVP2,2013-06-18 13:16:00,
2013-06-18 06:21:00,58.9,51.3,29.94,NNW,335,2.0,5.0,76,0.00,,,0.00,WUHU216DAVISVP2,2013-06-18 13:21:00,
2013-06-18 06:26:00,59.0,51.4,29.94,NNW,335,3.0,5.0,76,0.00,,,0.00,WUHU216DAVISVP2,2013-06-18 13:26:00,
2013-06-18 06:31:00,59.0,51.5,29.94,NNW,335,0.0,5.0,76,0.00,,,0.00,WUHU216DAVISVP2,2013-06-18 13:31:00,
2013-06-18 06:36:00,59.0,51.5,29.94,NNW,335,2.0,4.0,76,0.00,,,0.00,WUHU216DAVISVP2,2013-06-18 13:36:00,
2013-06-18 06:41:00,59.1,51.5,29.94,NNW,335,0.0,4.0,76,0.00,,,0.00,WUHU216DAVISVP2,2013-06-18 13:41:00,
2013-06-18 06:46:00,59.3,51.8,29.95,NNW,335,4.0,4.0,76,0.00,,,0.00,WUHU216DAVISVP2,2013-06-18 13:46:00,
2013-06-18 06:51:00,59.5,52.0,29.95,NNW,335,3.0,5.0,76,0.00,,,0.00,WUHU216DAVISVP2,2013-06-18 13:51:00,
2013-06-18 06:56:00,59.7,52.2,29.95,NNW,335,3.0,5.0,76,0.00,,,0.00,WUHU216DAVISVP2,2013-06-18 13:56:00,
2013-06-18 07:01:00,59.9,52.3,29.95,NNW,335,0.0,5.0,76,0.00,,,0.00,WUHU216DAVISVP2,2013-06-18 14:01:00,
2013-06-18 07:06:00,60.1,52.1,29.95,NNW,335,0.0,5.0,75,0.00,,,0.00,WUHU216DAVISVP2,2013-06-18 14:06:00,
2013-06-18 07:11:00,60.4,52.4,29.95,NNW,335,0.0,5.0,75,0.00,,,0.00,WUHU216DAVISVP2,2013-06-18 14:11:00,
2013-06-18 07:16:00,60.8,52.5,29.95,NW,317,4.0,8.0,74,0.00,,,0.00,WUHU216DAVISVP2,2013-06-18 14:16:00,
2013-06-18 07:21:00,61.2,52.5,29.96,NW,316,6.0,8.0,73,0.00,,,0.00,WUHU216DAVISVP2,2013-06-18 14:21:00,
2013-06-18 07:26:00,61.5,52.8,29.96,NW,325,4.0,6.0,73,0.00,,,0.00,WUHU216DAVISVP2,2013-06-18 14:26:00,
2013-06-18 07:31:00,61.8,52.7,29.96,NW,323,4.0,7.0,72,0.00,,,0.00,WUHU216DAVISVP2,2013-06-18 14:31:00,
2013-06-18 07:36:00,62.2,52.7,29.96,NNW,338,6.0,9.0,71,0.00,,,0.00,WUHU216DAVISVP2,2013-06-18 14:36:00,
2013-06-18 07:41:00,62.5,53.0,29.96,North,360,3.0,13.0,71,0.00,,,0.00,WUHU216DAVISVP2,2013-06-18 14:41:00,
2013-06-18 07:46:00,63.1,53.2,29.96,NNW,346,3.0,13.0,70,0.00,,,0.00,WUHU216DAVISVP2,2013-06-18 14:46:00,
2013-06-18 07:51:00,63.6,53.2,29.96,NNW,331,5.0,11.0,69,0.00,,,0.00,WUHU216DAVISVP2,2013-06-18 14:51:00,
2013-06-18 07:56:00,64.1,53.3,29.96,NW,325,6.0,11.0,68,0.00,,,0.00,WUHU216DAVISVP2,2013-06-18 14:56:00,
2013-06-18 08:01:00,64.4,53.2,29.96,NNW,335,8.0,10.0,67,0.00,,,0.00,WUHU216DAVISVP2,2013-06-18 15:01:00,
2013-06-18 08:06:00,64.8,53.6,29.96,NNW,333,6.0,10.0,67,0.00,,,0.00,WUHU216DAVISVP2,2013-06-18 15:06:00,
2013-06-18 08:11:00,65.2,53.7,29.96,NW,309,7.0,10.0,66,0.00,,,0.00,WUHU216DAVISVP2,2013-06-18 15:11:00,
2013-06-18 08:16:00,65.8,53.9,29.96,WNW,302,8.0,10.0,65,0.00,,,0.00,WUHU216DAVISVP2,2013-06-18 15:16:00,
2013-06-18 08:21:00,66.1,53.7,29.97,NW,320,8.0,14.0,64,0.00,,,0.00,WUHU216DAVISVP2,2013-06-18 15:21:00,
2013-06-18 08:26:00,66.3,53.9,29.96,NW,321,9.0,14.0,64,0.00,,,0.00,WUHU216DAVISVP2,2013-06-18 15:26:00,
2013-06-18 08:31:00,66.6,53.8,29.96,NNW,327,11.0,14.0,63,0.00,,,0.00,WUHU216DAVISVP2,2013-06-18 15:31:00,
2013-06-18 08:36:00,67.0,54.2,29.96,NNW,346,8.0,13.0,63,0.00,,,0.00,WUHU216DAVISVP2,2013-06-18 15:36:00,
2013-06-18 08:41:00,67.4,53.7,29.97,NW,323,11.0,13.0,61,0.00,,,0.00,WUHU216DAVISVP2,2013-06-18 15:41:00,
2013-06-18 08:46:00,67.9,54.1,29.97,NNW,337,8.0,14.0,61,0.00,,,0.00,WUHU216DAVISVP2,2013-06-18 15:46:00,
2013-06-18 08:51:00,68.5,54.2,29.97,WNW,288,7.0,14.0,60,0.00,,,0.00,WUHU216DAVISVP2,2013-06-18 15:51:00,
2013-06-18 08:56:00,68.8,54.1,29.97,NW,319,6.0,11.0,59,0.00,,,0.00,WUHU216DAVISVP2,2013-06-18 15:56:00,
2013-06-18 09:01:00,69.0,54.2,29.97,WNW,291,7.0,11.0,59,0.00,,,0.00,WUHU216DAVISVP2,2013-06-18 16:01:00,
2013-06-18 09:06:00,69.2,54.0,29.97,WNW,298,7.0,11.0,58,0.00,,,0.00,WUHU216DAVISVP2,2013-06-18 16:06:00,
2013-06-18 09:11:00,69.1,53.9,29.97,NW,306,8.0,13.0,58,0.00,,,0.00,WUHU216DAVISVP2,2013-06-18 16:11:00,
2013-06-18 09:16:00,69.2,53.8,29.97,WNW,302,4.0,14.0,58,0.00,,,0.00,WUHU216DAVISVP2,2013-06-18 16:16:00,
2013-06-18 09:21:00,69.9,54.0,29.97,WNW,300,8.0,14.0,57,0.00,,,0.00,WUHU216DAVISVP2,2013-06-18 16:21:00,
2013-06-18 09:26:00,70.1,54.2,29.97,NW,309,7.0,12.0,57,0.00,,,0.00,WUHU216DAVISVP2,2013-06-18 16:26:00,
2013-06-18 09:31:00,70.1,53.7,29.97,NW,319,12.0,13.0,56,0.00,,,0.00,WUHU216DAVISVP2,2013-06-18 16:31:00,
2013-06-18 09:36:00,70.3,53.4,29.97,NW,317,7.0,15.0,55,0.00,,,0.00,WUHU216DAVISVP2,2013-06-18 16:36:00,
2013-06-18 09:41:00,70.8,53.3,29.97,NW,317,11.0,15.0,54,0.00,,,0.00,WUHU216DAVISVP2,2013-06-18 16:41:00,
2013-06-18 09:46:00,71.0,54.0,29.96,NNW,331,2.0,13.0,55,0.00,,,0.00,WUHU216DAVISVP2,2013-06-18 16:46:00,
2013-06-18 09:51:00,71.2,53.8,29.96,NW,315,9.0,13.0,54,0.00,,,0.00,WUHU216DAVISVP2,2013-06-18 16:51:00,
2013-06-18 09:56:00,71.2,54.3,29.96,NNW,342,7.0,13.0,55,0.00,,,0.00,WUHU216DAVISVP2,2013-06-18 16:56:00,
2013-06-18 10:01:00,71.6,54.7,29.96,WNW,297,9.0,11.0,55,0.00,,,0.00,WUHU216DAVISVP2,2013-06-18 17:01:00,
2013-06-18 10:06:00,71.6,53.7,29.96,WNW,303,7.0,12.0,53,0.00,,,0.00,WUHU216DAVISVP2,2013-06-18 17:06:00,
2013-06-18 10:11:00,72.0,54.6,29.96,NNW,329,5.0,12.0,54,0.00,,,0.00,WUHU216DAVISVP2,2013-06-18 17:11:00,
2013-06-18 10:16:00,72.1,54.1,29.96,WNW,292,8.0,11.0,53,0.00,,,0.00,WUHU216DAVISVP2,2013-06-18 17:16:00,
2013-06-18 10:21:00,71.7,53.8,29.96,WNW,286,6.0,14.0,53,0.00,,,0.00,WUHU216DAVISVP2,2013-06-18 17:21:00,
2013-06-18 10:26:00,72.0,54.0,29.96,NW,319,5.0,14.0,53,0.00,,,0.00,WUHU216DAVISVP2,2013-06-18 17:26:00,
2013-06-18 10:31:00,72.4,54.9,29.96,NNW,329,7.0,12.0,54,0.00,,,0.00,WUHU216DAVISVP2,2013-06-18 17:31:00,
2013-06-18 10:36:00,72.6,54.1,29.96,NW,319,8.0,12.0,52,0.00,,,0.00,WUHU216DAVISVP2,2013-06-18 17:36:00,
2013-06-18 10:41:00,72.8,54.3,29.96,WNW,294,3.0,13.0,52,0.00,,,0.00,WUHU216DAVISVP2,2013-06-18 17:41:00,
2013-06-18 10:46:00,72.9,53.7,29.96,NW,305,11.0,13.0,51,0.00,,,0.00,WUHU216DAVISVP2,2013-06-18 17:46:00,
2013-06-18 10:51:00,73.0,54.3,29.95,NNW,346,5.0,12.0,52,0.00,,,0.00,WUHU216DAVISVP2,2013-06-18 17:51:00,
2013-06-18 10:56:00,74.0,54.2,29.96,NW,322,5.0,15.0,50,0.00,,,0.00,WUHU216DAVISVP2,2013-06-18 17:56:00,
2013-06-18 11:01:00,73.1,53.9,29.96,NNW,339,10.0,15.0,51,0.00,,,0.00,WUHU216DAVISVP2,2013-06-18 18:01:00,
2013-06-18 11:06:00,74.2,54.4,29.96,NW,308,6.0,12.0,50,0.00,,,0.00,WUHU216DAVISVP2,2013-06-18 18:06:00,
2013-06-18 11:11:00,74.4,54.6,29.96,NNW,342,6.0,11.0,50,0.00,,,0.00,WUHU216DAVISVP2,2013-06-18 18:11:00,
2013-06-18 11:16:00,73.7,54.5,29.95,NW,319,5.0,12.0,51,0.00,,,0.00,WUHU216DAVISVP2,2013-06-18 18:16:00,
2013-06-18 11:21:00,74.6,54.8,29.95,NNW,338,9.0,12.0,50,0.00,,,0.00,WUHU216DAVISVP2,2013-06-18 18:21:00,
2013-06-18 11:26:00,74.7,54.9,29.95,NW,311,7.0,11.0,50,0.00,,,0.00,WUHU216DAVISVP2,2013-06-18 18:26:00,
2013-06-18 11:31:00,74.3,54.0,29.95,NNW,327,9.0,12.0,49,0.00,,,0.00,WUHU216DAVISVP2,2013-06-18 18:31:00,
2013-06-18 11:36:00,74.7,54.9,29.95,NW,308,5.0,12.0,50,0.00,,,0.00,WUHU216DAVISVP2,2013-06-18 18:36:00,
2013-06-18 11:41:00,75.6,54.6,29.95,NNW,335,4.0,13.0,48,0.00,,,0.00,WUHU216DAVISVP2,2013-06-18 18:41:00,
2013-06-18 11:46:00,75.7,54.7,29.95,NW,318,10.0,13.0,48,0.00,,,0.00,WUHU216DAVISVP2,2013-06-18 18:46:00,
2013-06-18 11:51:00,75.8,54.8,29.94,NW,312,6.0,13.0,48,0.00,,,0.00,WUHU216DAVISVP2,2013-06-18 18:51:00,
2013-06-18 11:56:00,75.8,54.8,29.94,West,281,8.0,14.0,48,0.00,,,0.00,WUHU216DAVISVP2,2013-06-18 18:56:00,
2013-06-18 12:01:00,76.5,54.2,29.94,WNW,303,9.0,14.0,46,0.00,,,0.00,WUHU216DAVISVP2,2013-06-18 19:01:00,
2013-06-18 12:06:00,76.2,53.9,29.94,NW,326,8.0,14.0,46,0.00,,,0.00,WUHU216DAVISVP2,2013-06-18 19:06:00,
2013-06-18 12:11:00,77.1,54.1,29.94,NNW,333,10.0,13.0,45,0.00,,,0.00,WUHU216DAVISVP2,2013-06-18 19:11:00,
2013-06-18 12:16:00,76.6,54.3,29.94,NW,321,5.0,13.0,46,0.00,,,0.00,WUHU216DAVISVP2,2013-06-18 19:16:00,
2013-06-18 12:21:00,77.0,53.4,29.94,NW,313,11.0,13.0,44,0.00,,,0.00,WUHU216DAVISVP2,2013-06-18 19:21:00,
2013-06-18 12:26:00,77.3,51.7,29.93,WNW,301,7.0,13.0,41,0.00,,,0.00,WUHU216DAVISVP2,2013-06-18 19:26:00,
2013-06-18 12:31:00,77.3,52.4,29.93,WNW,294,7.0,11.0,42,0.00,,,0.00,WUHU216DAVISVP2,2013-06-18 19:31:00,
2013-06-18 12:36:00,77.5,52.6,29.93,North,350,8.0,12.0,42,0.00,,,0.00,WUHU216DAVISVP2,2013-06-18 19:36:00,
2013-06-18 12:41:00,77.9,51.6,29.93,WNW,299,8.0,15.0,40,0.00,,,0.00,WUHU216DAVISVP2,2013-06-18 19:41:00,
2013-06-18 12:46:00,79.1,53.4,29.93,NNW,347,4.0,15.0,41,0.00,,,0.00,WUHU216DAVISVP2,2013-06-18 19:46:00,
2013-06-18 12:51:00,79.2,52.0,29.92,NW,309,9.0,11.0,39,0.00,,,0.00,WUHU216DAVISVP2,2013-06-18 19:51:00,
2013-06-18 12:56:00,80.0,52.1,29.92,NNW,342,12.0,14.0,38,0.00,,,0.00,WUHU216DAVISVP2,2013-06-18 19:56:00,
2013-06-18 13:01:00,79.2,50.6,29.92,NW,311,8.0,14.0,37,0.00,,,0.00,WUHU216DAVISVP2,2013-06-18 20:01:00,
2013-06-18 13:06:00,79.4,51.5,29.92,WNW,301,7.0,14.0,38,0.00,,,0.00,WUHU216DAVISVP2,2013-06-18 20:06:00,
2013-06-18 13:11:00,79.0,51.1,29.92,NW,307,10.0,12.0,38,0.00,,,0.00,WUHU216DAVISVP2,2013-06-18 20:11:00,
2013-06-18 13:16:00,78.8,51.7,29.92,NNW,327,7.0,14.0,39,0.00,,,0.00,WUHU216DAVISVP2,2013-06-18 20:16:00,
2013-06-18 13:21:00,78.7,53.0,29.91,NNW,333,8.0,14.0,41,0.00,,,0.00,WUHU216DAVISVP2,2013-06-18 20:21:00,
2013-06-18 13:26:00,79.9,50.4,29.91,WNW,296,7.0,13.0,36,0.00,,,0.00,WUHU216DAVISVP2,2013-06-18 20:26:00,
2013-06-18 13:31:00,80.1,52.1,29.91,WNW,296,11.0,13.0,38,0.00,,,0.00,WUHU216DAVISVP2,2013-06-18 20:31:00,
2013-06-18 13:36:00,80.2,50.8,29.91,NNW,330,10.0,14.0,36,0.00,,,0.00,WUHU216DAVISVP2,2013-06-18 20:36:00,
2013-06-18 13:41:00,79.7,50.3,29.91,West,277,6.0,14.0,36,0.00,,,0.00,WUHU216DAVISVP2,2013-06-18 20:41:00,
2013-06-18 13:46:00,80.0,50.5,29.90,WNW,302,8.0,12.0,36,0.00,,,0.00,WUHU216DAVISVP2,2013-06-18 20:46:00,
2013-06-18 13:51:00,80.7,50.4,29.91,NNW,344,7.0,12.0,35,0.00,,,0.00,WUHU216DAVISVP2,2013-06-18 20:51:00,
2013-06-18 13:56:00,80.3,50.0,29.90,North,5,4.0,14.0,35,0.00,,,0.00,WUHU216DAVISVP2,2013-06-18 20:56:00,
2013-06-18 14:01:00,80.5,50.2,29.90,WNW,292,8.0,14.0,35,0.00,,,0.00,WUHU216DAVISVP2,2013-06-18 21:01:00,
2013-06-18 14:06:00,80.5,51.0,29.90,NNW,330,6.0,14.0,36,0.00,,,0.00,WUHU216DAVISVP2,2013-06-18 21:06:00,
2013-06-18 14:11:00,79.9,51.9,29.90,NW,316,5.0,13.0,38,0.00,,,0.00,WUHU216DAVISVP2,2013-06-18 21:11:00,
2013-06-18 14:16:00,81.4,49.4,29.90,NW,306,6.0,12.0,33,0.00,,,0.00,WUHU216DAVISVP2,2013-06-18 21:16:00,
2013-06-18 14:21:00,80.9,49.8,29.90,NNW,344,6.0,13.0,34,0.00,,,0.00,WUHU216DAVISVP2,2013-06-18 21:21:00,
2013-06-18 14:26:00,81.1,50.7,29.89,West,271,9.0,13.0,35,0.00,,,0.00,WUHU216DAVISVP2,2013-06-18 21:26:00,
2013-06-18 14:31:00,80.7,51.9,29.89,NNW,331,5.0,13.0,37,0.00,,,0.00,WUHU216DAVISVP2,2013-06-18 21:31:00,
2013-06-18 14:36:00,81.9,51.6,29.89,NW,322,7.0,14.0,35,0.00,,,0.00,WUHU216DAVISVP2,2013-06-18 21:36:00,
2013-06-18 14:41:00,82.5,51.2,29.89,NW,323,4.0,14.0,34,0.00,,,0.00,WUHU216DAVISVP2,2013-06-18 21:41:00,
2013-06-18 14:46:00,82.1,52.4,29.89,NW,304,7.0,15.0,36,0.00,,,0.00,WUHU216DAVISVP2,2013-06-18 21:46:00,
2013-06-18 14:51:00,81.1,51.6,29.89,NW,323,5.0,15.0,36,0.00,,,0.00,WUHU216DAVISVP2,2013-06-18 21:51:00,
2013-06-18 14:56:00,82.5,52.0,29.89,NW,304,5.0,12.0,35,0.00,,,0.00,WUHU216DAVISVP2,2013-06-18 21:56:00,
2013-06-18 15:01:00,82.7,50.5,29.88,NE,42,7.0,12.0,33,0.00,,,0.00,WUHU216DAVISVP2,2013-06-18 22:01:00,
2013-06-18 15:06:00,83.1,50.9,29.88,NW,323,11.0,15.0,33,0.00,,,0.00,WUHU216DAVISVP2,2013-06-18 22:06:00,
2013-06-18 15:11:00,82.2,52.6,29.88,NW,324,7.0,15.0,36,0.00,,,0.00,WUHU216DAVISVP2,2013-06-18 22:11:00,
2013-06-18 15:16:00,82.4,52.0,29.88,NNW,329,8.0,14.0,35,0.00,,,0.00,WUHU216DAVISVP2,2013-06-18 22:16:00,
2013-06-18 15:21:00,83.2,52.6,29.88,North,5,5.0,12.0,35,0.00,,,0.00,WUHU216DAVISVP2,2013-06-18 22:21:00,
2013-06-18 15:26:00,83.5,52.0,29.87,NNW,340,8.0,12.0,34,0.00,,,0.00,WUHU216DAVISVP2,2013-06-18 22:26:00,
2013-06-18 15:31:00,83.5,51.2,29.87,NNW,346,9.0,14.0,33,0.00,,,0.00,WUHU216DAVISVP2,2013-06-18 22:31:00,
2013-06-18 15:36:00,83.3,51.1,29.87,NNW,347,4.0,14.0,33,0.00,,,0.00,WUHU216DAVISVP2,2013-06-18 22:36:00,
2013-06-18 15:41:00,82.8,52.3,29.87,NW,313,7.0,14.0,35,0.00,,,0.00,WUHU216DAVISVP2,2013-06-18 22:41:00,
2013-06-18 15:46:00,83.8,51.5,29.86,WNW,302,5.0,13.0,33,0.00,,,0.00,WUHU216DAVISVP2,2013-06-18 22:46:00,
2013-06-18 15:51:00,83.3,51.1,29.86,NW,307,9.0,14.0,33,0.00,,,0.00,WUHU216DAVISVP2,2013-06-18 22:51:00,
2013-06-18 15:56:00,83.9,51.7,29.86,NNE,26,0.0,14.0,33,0.00,,,0.00,WUHU216DAVISVP2,2013-06-18 22:56:00,
2013-06-18 16:01:00,83.7,50.6,29.86,NNW,338,11.0,15.0,32,0.00,,,0.00,WUHU216DAVISVP2,2013-06-18 23:01:00,
2013-06-18 16:06:00,83.3,51.1,29.86,NW,306,10.0,15.0,33,0.00,,,0.00,WUHU216DAVISVP2,2013-06-18 23:06:00,
2013-06-18 16:11:00,83.3,50.4,29.86,North,355,7.0,14.0,32,0.00,,,0.00,WUHU216DAVISVP2,2013-06-18 23:11:00,
2013-06-18 16:16:00,83.6,49.6,29.86,NNW,337,6.0,14.0,31,0.00,,,0.00,WUHU216DAVISVP2,2013-06-18 23:16:00,
2013-06-18 16:21:00,83.4,50.3,29.86,WNW,296,9.0,15.0,32,0.00,,,0.00,WUHU216DAVISVP2,2013-06-18 23:21:00,
2013-06-18 16:26:00,83.2,50.1,29.85,WNW,288,5.0,15.0,32,0.00,,,0.00,WUHU216DAVISVP2,2013-06-18 23:26:00,
2013-06-18 16:31:00,83.5,50.5,29.85,WNW,302,11.0,13.0,32,0.00,,,0.00,WUHU216DAVISVP2,2013-06-18 23:31:00,
2013-06-18 16:36:00,83.3,50.2,29.85,NNW,333,8.0,15.0,32,0.00,,,0.00,WUHU216DAVISVP2,2013-06-18 23:36:00,
2013-06-18 16:41:00,83.1,50.0,29.85,WNW,296,9.0,15.0,32,0.00,,,0.00,WUHU216DAVISVP2,2013-06-18 23:41:00,
2013-06-18 16:46:00,83.5,50.4,29.85,NNW,336,14.0,15.0,32,0.00,,,0.00,WUHU216DAVISVP2,2013-06-18 23:46:00,
2013-06-18 16:51:00,83.1,50.9,29.85,NW,323,7.0,15.0,33,0.00,,,0.00,WUHU216DAVISVP2,2013-06-18 23:51:00,
2013-06-18 16:56:00,83.2,50.1,29.85,NW,315,9.0,15.0,32,0.00,,,0.00,WUHU216DAVISVP2,2013-06-18 23:56:00,
2013-06-18 17:01:00,83.2,51.1,29.85,NW,309,5.0,14.0,33,0.00,,,0.00,WUHU216DAVISVP2,2013-06-19 00:01:00,
2013-06-18 17:06:00,83.2,50.1,29.84,WNW,291,12.0,14.0,32,0.00,,,0.00,WUHU216DAVISVP2,2013-06-19 00:06:00,
2013-06-18 17:11:00,82.7,50.5,29.84,NW,319,8.0,15.0,33,0.00,,,0.00,WUHU216DAVISVP2,2013-06-19 00:11:00,
2013-06-18 17:16:00,82.7,50.5,29.84,NW,313,13.0,15.0,33,0.00,,,0.00,WUHU216DAVISVP2,2013-06-19 00:16:00,
2013-06-18 17:21:00,82.7,50.5,29.84,NW,317,8.0,15.0,33,0.00,,,0.00,WUHU216DAVISVP2,2013-06-19 00:21:00,
2013-06-18 17:26:00,82.3,50.2,29.84,NW,318,5.0,15.0,33,0.00,,,0.00,WUHU216DAVISVP2,2013-06-19 00:26:00,
2013-06-18 17:31:00,82.1,49.2,29.83,NW,304,7.0,15.0,32,0.00,,,0.00,WUHU216DAVISVP2,2013-06-19 00:31:00,
2013-06-18 17:36:00,82.3,48.5,29.84,NNW,333,6.0,15.0,31,0.00,,,0.00,WUHU216DAVISVP2,2013-06-19 00:36:00,
2013-06-18 17:41:00,82.3,49.3,29.83,NNW,343,8.0,15.0,32,0.00,,,0.00,WUHU216DAVISVP2,2013-06-19 00:41:00,
2013-06-18 17:46:00,82.2,49.4,29.83,NNW,335,8.0,15.0,32,0.00,,,0.00,WUHU216DAVISVP2,2013-06-19 00:46:00,
2013-06-18 17:51:00,82.1,48.5,29.83,NW,311,4.0,15.0,31,0.00,,,0.00,WUHU216DAVISVP2,2013-06-19 00:51:00,
2013-06-18 17:56:00,82.3,48.5,29.83,WNW,296,10.0,15.0,31,0.00,,,0.00,WUHU216DAVISVP2,2013-06-19 00:56:00,
2013-06-18 18:01:00,82.1,48.3,29.83,NW,308,14.0,16.0,31,0.00,,,0.00,WUHU216DAVISVP2,2013-06-19 01:01:00,
2013-06-18 18:06:00,82.1,48.5,29.83,NNE,20,6.0,16.0,31,0.00,,,0.00,WUHU216DAVISVP2,2013-06-19 01:06:00,
2013-06-18 18:11:00,81.8,48.1,29.83,WNW,295,10.0,14.0,31,0.00,,,0.00,WUHU216DAVISVP2,2013-06-19 01:11:00,
2013-06-18 18:16:00,81.6,49.6,29.83,NW,304,11.0,13.0,33,0.00,,,0.00,WUHU216DAVISVP2,2013-06-19 01:16:00,
2013-06-18 18:21:00,81.6,48.0,29.83,NW,312,7.0,14.0,31,0.00,,,0.00,WUHU216DAVISVP2,2013-06-19 01:21:00,
2013-06-18 18:26:00,81.4,47.7,29.83,NW,304,10.0,14.0,31,0.00,,,0.00,WUHU216DAVISVP2,2013-06-19 01:26:00,
2013-06-18 18:31:00,81.3,47.6,29.83,NW,305,10.0,18.0,31,0.00,,,0.00,WUHU216DAVISVP2,2013-06-19 01:31:00,
2013-06-18 18:36:00,81.2,47.7,29.83,NW,325,11.0,18.0,31,0.00,,,0.00,WUHU216DAVISVP2,2013-06-19 01:36:00,
2013-06-18 18:41:00,81.1,48.3,29.83,WNW,303,10.0,17.0,32,0.00,,,0.00,WUHU216DAVISVP2,2013-06-19 01:41:00,
2013-06-18 18:46:00,80.9,48.1,29.83,WNW,286,10.0,17.0,32,0.00,,,0.00,WUHU216DAVISVP2,2013-06-19 01:46:00,
2013-06-18 18:51:00,80.6,47.9,29.83,NW,309,7.0,15.0,32,0.00,,,0.00,WUHU216DAVISVP2,2013-06-19 01:51:00,
2013-06-18 18:56:00,80.3,48.4,29.83,NNW,333,8.0,15.0,33,0.00,,,0.00,WUHU216DAVISVP2,2013-06-19 01:56:00,
2013-06-18 19:01:00,79.9,48.2,29.83,NW,317,9.0,18.0,33,0.00,,,0.00,WUHU216DAVISVP2,2013-06-19 02:01:00,
2013-06-18 19:06:00,79.8,48.0,29.83,WNW,297,7.0,18.0,33,0.00,,,0.00,WUHU216DAVISVP2,2013-06-19 02:06:00,
2013-06-18 19:11:00,79.5,47.7,29.83,WNW,303,9.0,15.0,33,0.00,,,0.00,WUHU216DAVISVP2,2013-06-19 02:11:00,
2013-06-18 19:16:00,79.4,48.4,29.83,NNW,329,9.0,14.0,34,0.00,,,0.00,WUHU216DAVISVP2,2013-06-19 02:16:00,
2013-06-18 19:21:00,79.2,48.3,29.83,WNW,291,3.0,15.0,34,0.00,,,0.00,WUHU216DAVISVP2,2013-06-19 02:21:00,
2013-06-18 19:26:00,79.0,49.0,29.83,NW,319,11.0,15.0,35,0.00,,,0.00,WUHU216DAVISVP2,2013-06-19 02:26:00,
2013-06-18 19:31:00,78.6,48.5,29.83,NW,314,6.0,15.0,35,0.00,,,0.00,WUHU216DAVISVP2,2013-06-19 02:31:00,
2013-06-18 19:36:00,78.3,49.1,29.83,WNW,298,8.0,15.0,36,0.00,,,0.00,WUHU216DAVISVP2,2013-06-19 02:36:00,
2013-06-18 19:41:00,78.0,49.5,29.83,NW,310,12.0,17.0,37,0.00,,,0.00,WUHU216DAVISVP2,2013-06-19 02:41:00,
2013-06-18 19:46:00,77.7,49.2,29.83,NNW,340,7.0,17.0,37,0.00,,,0.00,WUHU216DAVISVP2,2013-06-19 02:46:00,
2013-06-18 19:51:00,77.4,49.7,29.83,West,281,6.0,16.0,38,0.00,,,0.00,WUHU216DAVISVP2,2013-06-19 02:51:00,
2013-06-18 19:56:00,77.1,49.4,29.83,NW,309,5.0,13.0,38,0.00,,,0.00,WUHU216DAVISVP2,2013-06-19 02:56:00,
2013-06-18 20:02:00,76.9,49.2,29.83,WNW,298,11.0,13.0,38,0.00,,,0.00,WUHU216DAVISVP2,2013-06-19 03:02:00,
2013-06-18 20:07:00,76.6,49.7,29.84,NNW,329,13.0,15.0,39,0.00,,,0.00,WUHU216DAVISVP2,2013-06-19 03:07:00,
2013-06-18 20:12:00,76.2,50.0,29.83,NW,309,12.0,15.0,40,0.00,,,0.00,WUHU216DAVISVP2,2013-06-19 03:12:00,
2013-06-18 20:17:00,75.8,50.3,29.84,NW,319,10.0,15.0,41,0.00,,,0.00,WUHU216DAVISVP2,2013-06-19 03:17:00,
2013-06-18 20:22:00,75.5,50.1,29.84,WNW,297,4.0,13.0,41,0.00,,,0.00,WUHU216DAVISVP2,2013-06-19 03:22:00,
2013-06-18 20:27:00,75.2,50.5,29.84,NW,304,8.0,12.0,42,0.00,,,0.00,WUHU216DAVISVP2,2013-06-19 03:27:00,
2013-06-18 20:32:00,74.7,50.7,29.84,WNW,296,10.0,15.0,43,0.00,,,0.00,WUHU216DAVISVP2,2013-06-19 03:32:00,
2013-06-18 20:37:00,74.3,49.7,29.84,NW,309,10.0,16.0,42,0.00,,,0.00,WUHU216DAVISVP2,2013-06-19 03:37:00,
2013-06-18 20:42:00,73.9,49.4,29.84,West,281,13.0,16.0,42,0.00,,,0.00,WUHU216DAVISVP2,2013-06-19 03:42:00,
2013-06-18 20:47:00,73.6,49.0,29.85,WNW,299,10.0,16.0,42,0.00,,,0.00,WUHU216DAVISVP2,2013-06-19 03:47:00,
2013-06-18 20:52:00,73.3,48.7,29.85,WNW,291,9.0,14.0,42,0.00,,,0.00,WUHU216DAVISVP2,2013-06-19 03:52:00,
2013-06-18 20:57:00,73.0,48.5,29.85,NW,314,7.0,13.0,42,0.00,,,0.00,WUHU216DAVISVP2,2013-06-19 03:57:00,
2013-06-18 21:01:00,72.7,48.9,29.86,WNW,300,6.0,14.0,43,0.00,,,0.00,WUHU216DAVISVP2,2013-06-19 04:01:00,
2013-06-18 21:06:00,72.4,49.2,29.86,WNW,298,7.0,14.0,44,0.00,,,0.00,WUHU216DAVISVP2,2013-06-19 04:06:00,
2013-06-18 21:11:00,72.2,49.0,29.86,NW,308,5.0,15.0,44,0.00,,,0.00,WUHU216DAVISVP2,2013-06-19 04:11:00,
2013-06-18 21:16:00,72.0,48.9,29.86,WNW,298,6.0,15.0,44,0.00,,,0.00,WUHU216DAVISVP2,2013-06-19 04:16:00,
2013-06-18 21:21:00,71.9,48.8,29.86,NW,311,12.0,15.0,44,0.00,,,0.00,WUHU216DAVISVP2,2013-06-19 04:21:00,
2013-06-18 21:26:00,71.7,48.6,29.86,NW,304,9.0,15.0,44,0.00,,,0.00,WUHU216DAVISVP2,2013-06-19 04:26:00,
2013-06-18 21:31:00,71.6,47.9,29.87,WNW,288,9.0,15.0,43,0.00,,,0.00,WUHU216DAVISVP2,2013-06-19 04:31:00,
2013-06-18 21:36:00,71.5,47.2,29.87,NW,311,11.0,15.0,42,0.00,,,0.00,WUHU216DAVISVP2,2013-06-19 04:36:00,
2013-06-18 21:41:00,71.4,46.4,29.87,NW,321,10.0,16.0,41,0.00,,,0.00,WUHU216DAVISVP2,2013-06-19 04:41:00,
2013-06-18 21:46:00,71.3,46.3,29.87,WNW,296,9.0,17.0,41,0.00,,,0.00,WUHU216DAVISVP2,2013-06-19 04:46:00,
2013-06-18 21:51:00,71.0,46.0,29.88,NW,309,14.0,21.0,41,0.00,,,0.00,WUHU216DAVISVP2,2013-06-19 04:51:00,
2013-06-18 21:56:00,70.5,46.3,29.88,WNW,300,19.0,21.0,42,0.00,,,0.00,WUHU216DAVISVP2,2013-06-19 04:56:00,
2013-06-18 22:01:00,70.0,46.5,29.88,NW,308,14.0,20.0,43,0.00,,,0.00,WUHU216DAVISVP2,2013-06-19 05:01:00,
2013-06-18 22:06:00,69.5,46.0,29.88,WNW,300,15.0,20.0,43,0.00,,,0.00,WUHU216DAVISVP2,2013-06-19 05:06:00,
2013-06-18 22:11:00,69.0,46.1,29.88,NW,313,12.0,22.0,44,0.00,,,0.00,WUHU216DAVISVP2,2013-06-19 05:11:00,
2013-06-18 22:16:00,68.6,45.8,29.89,WNW,301,9.0,22.0,44,0.00,,,0.00,WUHU216DAVISVP2,2013-06-19 05:16:00,
2013-06-18 22:21:00,68.3,46.1,29.89,WNW,299,16.0,21.0,45,0.00,,,0.00,WUHU216DAVISVP2,2013-06-19 05:21:00,
2013-06-18 22:26:00,68.1,45.9,29.89,NW,313,10.0,20.0,45,0.00,,,0.00,WUHU216DAVISVP2,2013-06-19 05:26:00,
2013-06-18 22:31:00,67.8,45.7,29.89,WNW,290,15.0,20.0,45,0.00,,,0.00,WUHU216DAVISVP2,2013-06-19 05:31:00,
2013-06-18 22:36:00,67.5,45.4,29.89,NW,315,9.0,18.0,45,0.00,,,0.00,WUHU216DAVISVP2,2013-06-19 05:36:00,
2013-06-18 22:41:00,67.3,45.8,29.89,WNW,300,13.0,18.0,46,0.00,,,0.00,WUHU216DAVISVP2,2013-06-19 05:41:00,
2013-06-18 22:46:00,67.1,45.6,29.90,WNW,293,10.0,18.0,46,0.00,,,0.00,WUHU216DAVISVP2,2013-06-19 05:46:00,
2013-06-18 22:51:00,66.9,45.4,29.90,NW,309,15.0,20.0,46,0.00,,,0.00,WUHU216DAVISVP2,2013-06-19 05:51:00,
2013-06-18 22:56:00,66.7,45.8,29.90,NW,305,10.0,20.0,47,0.00,,,0.00,WUHU216DAVISVP2,2013-06-19 05:56:00,
2013-06-18 23:01:00,66.5,45.6,29.90,NW,324,6.0,14.0,47,0.00,,,0.00,WUHU216DAVISVP2,2013-06-19 06:01:00,
2013-06-18 23:06:00,66.3,44.9,29.90,NW,315,11.0,16.0,46,0.00,,,0.00,WUHU216DAVISVP2,2013-06-19 06:06:00,
2013-06-18 23:11:00,66.1,45.3,29.90,NW,319,13.0,16.0,47,0.00,,,0.00,WUHU216DAVISVP2,2013-06-19 06:11:00,
2013-06-18 23:16:00,65.8,45.6,29.90,WNW,301,8.0,16.0,48,0.00,,,0.00,WUHU216DAVISVP2,2013-06-19 06:16:00,
2013-06-18 23:21:00,65.5,44.7,29.90,WNW,288,12.0,18.0,47,0.00,,,0.00,WUHU216DAVISVP2,2013-06-19 06:21:00,
2013-06-18 23:26:00,65.4,44.6,29.90,NW,320,4.0,18.0,47,0.00,,,0.00,WUHU216DAVISVP2,2013-06-19 06:26:00,
2013-06-18 23:31:00,65.1,44.4,29.90,NW,311,11.0,15.0,47,0.00,,,0.00,WUHU216DAVISVP2,2013-06-19 06:31:00,
2013-06-18 23:36:00,65.0,44.3,29.90,WNW,297,11.0,16.0,47,0.00,,,0.00,WUHU216DAVISVP2,2013-06-19 06:36:00,
2013-06-18 23:41:00,64.9,43.6,29.90,NNW,331,13.0,20.0,46,0.00,,,0.00,WUHU216DAVISVP2,2013-06-19 06:41:00,
2013-06-18 23:46:00,64.7,43.4,29.90,NW,310,5.0,20.0,46,0.00,,,0.00,WUHU216DAVISVP2,2013-06-19 06:46:00,
2013-06-18 23:51:00,64.5,43.2,29.90,NW,323,14.0,15.0,46,0.00,,,0.00,WUHU216DAVISVP2,2013-06-19 06:51:00,
2013-06-18 23:56:00,64.3,43.0,29.90,WNW,296,6.0,17.0,46,0.00,,,0.00,WUHU216DAVISVP2,2013-06-19 06:56:00,